| time (UTC) | temp F | wind direction | speed MPH | gust MPH | rain 1hr in | rain 24hr in | rain mn in | humidity % | barometer mb |
| 20260502220104 | 43 | 106 | 0.0 | 1.0 | 0.12 | 0.24 | 0.24 | 96 | 1014.3 |
| 20260502214558 | 43 | 106 | 0.0 | 2.0 | 0.14 | 0.23 | 0.23 | 96 | 1014.5 |
| 20260502213056 | 44 | 27 | 0.0 | 1.0 | 0.10 | 0.19 | 0.19 | 96 | 1014.5 |
| 20260502211555 | 44 | 36 | 0.0 | 1.0 | 0.06 | 0.14 | 0.14 | 96 | 1014.6 |
| 20260502210104 | 44 | 36 | 0.0 | 1.0 | 0.04 | 0.12 | 0.12 | 95 | 1014.6 |
| 20260502204553 | 44 | 90 | 0.0 | 1.0 | 0.01 | 0.09 | 0.09 | 95 | 1014.6 |
| 20260502203053 | 44 | 328 | 0.0 | 2.0 | 0.01 | 0.09 | 0.09 | 95 | 1014.3 |
| 20260502201557 | 44 | 74 | 0.0 | 2.0 | 0.00 | 0.08 | 0.08 | 94 | 1014.6 |
| 20260502200054 | 45 | 93 | 0.0 | 1.0 | 0.00 | 0.08 | 0.08 | 94 | 1014.6 |
| 20260502194550 | 45 | 93 | 0.0 | 1.0 | 0.00 | 0.08 | 0.08 | 95 | 1014.6 |
| 20260502193049 | 44 | 80 | 0.0 | 1.0 | 0.00 | 0.08 | 0.08 | 94 | 1014.6 |
| 20260502191550 | 45 | 80 | 0.0 | 1.0 | 0.00 | 0.08 | 0.08 | 94 | 1014.7 |
| 20260502190056 | 45 | 80 | 0.0 | 1.0 | 0.00 | 0.08 | 0.08 | 94 | 1014.9 |
| 20260502184555 | 45 | 80 | 0.0 | 1.0 | 0.00 | 0.08 | 0.08 | 94 | 1015.0 |
| 20260502183044 | 44 | 108 | 0.0 | 2.0 | 0.01 | 0.08 | 0.08 | 94 | 1015.2 |
| 20260502181542 | 44 | 133 | 0.0 | 1.0 | 0.01 | 0.08 | 0.08 | 94 | 1015.1 |
| 20260502163037 | 43 | 128 | 0.0 | 3.0 | 0.01 | 0.07 | 0.07 | 92 | 1015.3 |
| 20260502161536 | 43 | 91 | 0.0 | 2.0 | 0.01 | 0.07 | 0.07 | 90 | 1015.5 |
| 20260502151532 | 43 | 115 | 2.0 | 5.0 | 0.01 | 0.06 | 0.06 | 92 | 1015.6 |
| 20260502123019 | 39 | 144 | 0.0 | 1.0 | 0.02 | 0.02 | 0.02 | 94 | 1016.6 |
| 20260502121522 | 39 | 171 | 1.0 | 3.0 | 0.02 | 0.02 | 0.02 | 94 | 1016.9 |
| 20260502114515 | 38 | 112 | 0.0 | 1.0 | 0.01 | 0.01 | 0.01 | 94 | 1016.8 |
| 20260502113017 | 38 | 192 | 0.0 | 1.0 | 0.00 | 0.00 | 0.00 | 93 | 1016.8 |
| 20260502111512 | 38 | 276 | 0.0 | 3.0 | 0.00 | 0.00 | 0.00 | 91 | 1016.8 |
| 20260502110011 | 38 | 79 | 0.0 | 1.0 | 0.00 | 0.00 | 0.00 | 89 | 1017.0 |
| 20260502104509 | 37 | 172 | 0.0 | 1.0 | 0.00 | 0.00 | 0.00 | 89 | 1016.8 |
| 20260502103006 | 37 | 153 | 0.0 | 2.0 | 0.00 | 0.00 | 0.00 | 89 | 1016.3 |
| 20260502101504 | 36 | 286 | 0.0 | 1.0 | 0.00 | 0.00 | 0.00 | 90 | 1016.1 |
| 20260502091501 | 35 | 287 | 0.0 | 1.0 | 0.00 | 0.00 | 0.00 | 88 | 1015.3 |
| 20260502080106 | 37 | 286 | 0.0 | 0.0 | 0.00 | 0.00 | 0.00 | 87 | 1016.3 |
| 20260502070047 | 35 | 286 | 0.0 | 0.0 | 0.00 | 0.00 | 0.00 | 85 | 1015.3 |
| 20260502064545 | 35 | 287 | 0.0 | 0.0 | 0.00 | 0.00 | 0.00 | 85 | 1015.2 |
| 20260502063043 | 34 | 286 | 0.0 | 0.0 | 0.00 | 0.00 | 0.00 | 85 | 1015.1 |
| 20260502061543 | 33 | 286 | 0.0 | 0.0 | 0.00 | 0.00 | 0.00 | 87 | 1015.1 |
| 20260502060041 | 32 | 287 | 0.0 | 0.0 | 0.00 | 0.00 | 0.00 | 88 | 1015.1 |
| 20260502054542 | 32 | 286 | 0.0 | 0.0 | 0.00 | 0.00 | 0.00 | 88 | 1014.9 |
| 20260502053046 | 32 | 287 | 0.0 | 0.0 | 0.00 | 0.00 | 0.00 | 86 | 1014.9 |
| 20260502051546 | 33 | 286 | 0.0 | 0.0 | 0.00 | 0.00 | 0.00 | 85 | 1015.0 |
| 20260502050040 | 33 | 286 | 0.0 | 0.0 | 0.00 | 0.00 | 0.00 | 83 | 1014.9 |
| 20260502044532 | 33 | 287 | 0.0 | 0.0 | 0.00 | 0.00 | 0.00 | 81 | 1015.0 |
| 20260502043030 | 34 | 287 | 0.0 | 0.0 | 0.00 | 0.00 | 0.00 | 80 | 1015.0 |
| 20260502041535 | 34 | 287 | 0.0 | 0.0 | 0.00 | 0.00 | 0.00 | 81 | 1014.9 |
| 20260502040026 | 35 | 286 | 0.0 | 0.0 | 0.00 | 0.00 | 0.00 | 81 | 1015.0 |
| 20260502034530 | 35 | 286 | 0.0 | 0.0 | 0.00 | 0.00 | 0.00 | 82 | 1014.9 |
| 20260502033023 | 35 | 286 | 0.0 | 0.0 | 0.00 | 0.00 | 0.00 | 80 | 1014.9 |
| 20260502031521 | 36 | 286 | 0.0 | 0.0 | 0.00 | 0.00 | 0.00 | 77 | 1014.9 |
| 20260502030020 | 36 | 286 | 0.0 | 0.0 | 0.00 | 0.00 | 0.00 | 76 | 1014.9 |
| 20260502024517 | 37 | 286 | 0.0 | 0.0 | 0.00 | 0.00 | 0.00 | 75 | 1014.9 |
| 20260502023014 | 38 | 287 | 0.0 | 0.0 | 0.00 | 0.00 | 0.00 | 73 | 1014.8 |
| 20260502021513 | 38 | 287 | 0.0 | 0.0 | 0.00 | 0.00 | 0.00 | 71 | 1014.7 |
| 20260502020017 | 39 | 286 | 0.0 | 0.0 | 0.00 | 0.00 | 0.00 | 69 | 1014.7 |
| 20260502014511 | 40 | 286 | 0.0 | 0.0 | 0.00 | 0.00 | 0.00 | 70 | 1014.7 |
| 20260502013009 | 41 | 286 | 0.0 | 0.0 | 0.00 | 0.00 | 0.00 | 70 | 1014.4 |
| 20260502011530 | 43 | 286 | 0.0 | 1.0 | 0.00 | 0.00 | 0.00 | 67 | 1014.4 |
| 20260502010007 | 43 | 286 | 0.0 | 0.0 | 0.00 | 0.00 | 0.00 | 61 | 1014.3 |
| 20260502004507 | 45 | 286 | 0.0 | 0.0 | 0.00 | 0.00 | 0.00 | 59 | 1014.3 |
| 20260502003006 | 46 | 286 | 0.0 | 0.0 | 0.00 | 0.00 | 0.00 | 53 | 1014.1 |
| 20260502001507 | 48 | 287 | 0.0 | 0.0 | 0.00 | 0.00 | 0.00 | 51 | 1013.7 |
| 20260502000004 | 49 | 286 | 0.0 | 1.0 | 0.00 | 0.00 | 0.00 | 47 | 1013.3 |
| 20260501234600 | 50 | 286 | 0.0 | 1.0 | 0.00 | 0.00 | 0.00 | 46 | 1012.9 |
| 20260501233058 | 52 | 286 | 0.0 | 1.0 | 0.00 | 0.00 | 0.00 | 39 | 1012.7 |
| 20260501231602 | 53 | 287 | 0.0 | 3.0 | 0.00 | 0.00 | 0.00 | 38 | 1012.4 |
| 20260501230054 | 54 | 295 | 0.0 | 3.0 | 0.00 | 0.00 | 0.00 | 36 | 1012.1 |
| 20260501224600 | 54 | 307 | 0.0 | 6.0 | 0.00 | 0.00 | 0.00 | 39 | 1011.9 |
| 20260501223051 | 55 | 32 | 1.0 | 6.0 | 0.00 | 0.00 | 0.00 | 38 | 1011.7 |
| 20260501221608 | 56 | 106 | 1.0 | 4.0 | 0.00 | 0.00 | 0.00 | 36 | 1011.6 |